Flag for Cayman Islands Weather past 2 weeks in George Town, Cayman Islands

Now
86 °F

Partly sunny.


Feels Like: 99 °F
Forecast: 80 / 83 °F
Wind: 9 mph from East

Location: Owen Roberts Airportgrand Cayman

Current Time: Sep 17, 2014 at 3:03:37 PM

Latest Report: Sep 17, 2014 at 2:00 PM


Visibility: N/A

Pressure: 29.92 "Hg

Humidity: 79%

Dew point: 79 °F

Location of George TownLocation

Historic Weather in George Town — Graph

°F

George Town temperature yesterday

Maximum temperature yesterday: 88 °F (at 10:52 AM)
Minimum temperature yesterday: 79 °F (at 5:50 AM)
Average temperature yesterday: 85 °F

Past Weeks' High & Low Weather Summary

 TemperatureHumidityPressure
High90 °F (Sep 3, 12:50 PM)100% (Sep 3, 6:50 AM)30.04 "Hg (Sep 3, 6:50 AM)
Low77 °F (Sep 10, 6:00 AM)49% (Sep 14, 12:00 PM)29.86 "Hg (Sep 6, 5:00 PM)
Average85 °F80%29.95 "Hg
* Reported Sep 2 2:00 PM — Sep 17 2:00 PM, George Town, Weather by CustomWeather, © 2014

Note: Actual official high and low records may vary slightly from our data, if they occured in-between our weather recording intervals... More about our weather records

Advertising

George Town weather history for previous 24 hours

 ConditionsComfort  
Time TempWeatherWind HumidityBarometerVisibility
2:00 PM
Sep 17
86 °FPartly sunny.9 mph79%29.92 "HgN/A
1:00 PM86 °FPartly sunny.6 mph79%29.95 "HgN/A
12:00 PM86 °FPartly sunny.5 mph79%29.95 "HgN/A
11:00 AM84 °FPartly sunny.1 mph84%29.98 "HgN/A
10:00 AM86 °FPartly sunny.3 mph79%29.98 "HgN/A
9:00 AM84 °FPartly sunny.5 mph84%29.98 "HgN/A
8:00 AM84 °FPassing clouds.6 mph84%29.95 "HgN/A
7:00 AM81 °FPassing clouds.No wind94%29.95 "HgN/A
6:00 AM79 °FPassing clouds.1 mph100%29.95 "HgN/A
10:00 PM
Sep 16
84 °FPassing clouds.8 mph84%29.98 "HgN/A
9:00 PM84 °FPassing clouds.6 mph84%29.98 "HgN/A
8:00 PM82 °FPassing clouds.2 mph89%29.95 "HgN/A
7:00 PM82 °FPassing clouds.2 mph89%29.95 "HgN/A
6:00 PM82 °FScattered clouds.1 mph84%29.95 "HgN/A
5:00 PM82 °FSprinkles. Partly sunny.3 mph89%29.92 "HgN/A
4:00 PM86 °FScattered clouds.8 mph79%29.92 "HgN/A
3:00 PM88 °FPassing clouds.10 mph70%29.92 "HgN/A
Weather by CustomWeather, © 2014

See weather overviewHow to use our weather pages